"FRM_AIS_EDR_2018.DAT           ",2005-08-10T19:05:17.22 ,"1/0071780712.04853",    0,    0,  274896,"AIS","B1","B1","B0","B0","PISd",0,0,0,0,"B1", 0,15,   0, 0,    0,"AIS","N/A    ","OK ","OK ",    001178.540,    -057.667,    -166.696,    0015.422,    0048.692
"FRM_AIS_EDR_2018.DAT           ",2005-08-10T19:05:24.76 ,"1/0071780719.40452",    0,    1,  274896,"AIS","B1","B1","B0","B0","PISd",0,0,0,0,"B1", 0,15,   0, 0,    0,"AIS","N/A    ","OK ","OK ",    001168.154,    -057.341,    -166.659,    0015.427,    0048.617
"FRM_AIS_EDR_2018.DAT           ",2005-08-10T19:05:32.31 ,"1/0071780727.10515",    0,    2,  274896,"AIS","B1","B1","B0","B0","PISd",0,0,0,0,"B1", 0,15,   0, 0,    0,"AIS","N/A    ","OK ","OK ",    001157.800,    -057.014,    -166.624,    0015.431,    0048.543
"FRM_AIS_EDR_2018.DAT           ",2005-08-10T19:05:39.85 ,"1/0071780734.46115",    0,    3,  274896,"AIS","B1","B1","B0","B0","PISd",0,0,0,0,"B1", 0,15,   0, 0,    0,"AIS","N/A    ","OK ","OK ",    001147.477,    -056.685,    -166.589,    0015.435,    0048.470
"FRM_AIS_EDR_2018.DAT           ",2005-08-10T19:05:47.39 ,"1/0071780742.16178",    0,    4,  274896,"AIS","B1","B1","B0","B0","PISd",0,0,0,0,"B1", 0,15,   0, 0,    0,"AIS","N/A    ","OK ","OK ",    001137.186,    -056.354,    -166.555,    0015.440,    0048.398
"FRM_AIS_EDR_2018.DAT           ",2005-08-10T19:05:54.94 ,"1/0071780749.51777",    0,    5,  274896,"AIS","B1","B1","B0","B0","PISd",0,0,0,0,"B1", 0,15,   0, 0,    0,"AIS","N/A    ","OK ","OK ",    001126.928,    -056.022,    -166.522,    0015.444,    0048.328
"FRM_AIS_EDR_2018.DAT           ",2005-08-10T19:06:02.48 ,"1/0071780757.21841",    0,    6,  274896,"AIS","B1","B1","B0","B0","PISd",0,0,0,0,"B1", 0,15,   0, 0,    0,"AIS","N/A    ","OK ","OK ",    001116.703,    -055.689,    -166.490,    0015.448,    0048.259
"FRM_AIS_EDR_2018.DAT           ",2005-08-10T19:06:10.02 ,"1/0071780764.57440",    0,    7,  274896,"AIS","B1","B1","B0","B0","PISd",0,0,0,0,"B1", 0,15,   0, 0,    0,"AIS","N/A    ","OK ","OK ",    001106.512,    -055.353,    -166.458,    0015.452,    0048.192
"FRM_AIS_EDR_2018.DAT           ",2005-08-10T19:06:17.57 ,"1/0071780772.27503",    0,    8,  274896,"AIS","B1","B1","B0","B0","PISd",0,0,0,0,"B1", 0,15,   0, 0,    0,"AIS","N/A    ","OK ","OK ",    001096.356,    -055.017,    -166.428,    0015.456,    0048.126
"FRM_AIS_EDR_2018.DAT           ",2005-08-10T19:06:25.11 ,"1/0071780779.63103",    0,    9,  274896,"AIS","B1","B1","B0","B0","PISd",0,0,0,0,"B1", 0,15,   0, 0,    0,"AIS","N/A    ","OK ","OK ",    001086.234,    -054.679,    -166.398,    0015.460,    0048.061
"FRM_AIS_EDR_2018.DAT           ",2005-08-10T19:06:32.65 ,"1/0071780787.33166",    0,   10,  274896,"AIS","B1","B1","B0","B0","PISd",0,0,0,0,"B1", 0,15,   0, 0,    0,"AIS","N/A    ","OK ","OK ",    001076.147,    -054.339,    -166.368,    0015.464,    0047.998
"FRM_AIS_EDR_2018.DAT           ",2005-08-10T19:06:40.20 ,"1/0071780795.03229",    0,   11,  274896,"AIS","B1","B1","B0","B0","PISd",0,0,0,0,"B1", 0,15,   0, 0,    0,"AIS","N/A    ","OK ","OK ",    001066.096,    -053.997,    -166.340,    0015.468,    0047.936
"FRM_AIS_EDR_2018.DAT           ",2005-08-10T19:06:47.74 ,"1/0071780802.38829",    0,   12,  274896,"AIS","B1","B1","B0","B0","PISd",0,0,0,0,"B1", 0,15,   0, 0,    0,"AIS","N/A    ","OK ","OK ",    001056.082,    -053.655,    -166.312,    0015.472,    0047.875
"FRM_AIS_EDR_2018.DAT           ",2005-08-10T19:06:55.28 ,"1/0071780810.08892",    0,   13,  274896,"AIS","B1","B1","B0","B0","PISd",0,0,0,0,"B1", 0,15,   0, 0,    0,"AIS","N/A    ","OK ","OK ",    001046.104,    -053.310,    -166.285,    0015.476,    0047.817
"FRM_AIS_EDR_2018.DAT           ",2005-08-10T19:07:02.83 ,"1/0071780817.44491",    0,   14,  274896,"AIS","B1","B1","B0","B0","PISd",0,0,0,0,"B1", 0,15,   0, 0,    0,"AIS","N/A    ","OK ","OK ",    001036.164,    -052.964,    -166.259,    0015.480,    0047.759
"FRM_AIS_EDR_2018.DAT           ",2005-08-10T19:07:10.37 ,"1/0071780825.14555",    0,   15,  274896,"AIS","B1","B1","B0","B0","PISd",0,0,0,0,"B1", 0,15,   0, 0,    0,"AIS","N/A    ","OK ","OK ",    001026.262,    -052.617,    -166.233,    0015.484,    0047.704
"FRM_AIS_EDR_2018.DAT           ",2005-08-10T19:07:17.91 ,"1/0071780832.50154",    0,   16,  274896,"AIS","B1","B1","B0","B0","PISd",0,0,0,0,"B1", 0,15,   0, 0,    0,"AIS","N/A    ","OK ","OK ",    001016.398,    -052.267,    -166.208,    0015.487,    0047.650
"FRM_AIS_EDR_2018.DAT           ",2005-08-10T19:07:25.46 ,"1/0071780840.20217",    0,   17,  274896,"AIS","B1","B1","B0","B0","PISd",0,0,0,0,"B1", 0,15,   0, 0,    0,"AIS","N/A    ","OK ","OK ",    001006.574,    -051.917,    -166.183,    0015.491,    0047.598
"FRM_AIS_EDR_2018.DAT           ",2005-08-10T19:07:33.00 ,"1/0071780847.55816",    0,   18,  274896,"AIS","B1","B1","B0","B0","PISd",0,0,0,0,"B1", 0,15,   0, 0,    0,"AIS","N/A    ","OK ","OK ",    000996.789,    -051.565,    -166.159,    0015.494,    0047.547
"FRM_AIS_EDR_2018.DAT           ",2005-08-10T19:07:40.54 ,"1/0071780855.25880",    0,   19,  274896,"AIS","B1","B1","B0","B0","PISd",0,0,0,0,"B1", 0,15,   0, 0,    0,"AIS","N/A    ","OK ","OK ",    000987.044,    -051.211,    -166.136,    0015.498,    0047.498
"FRM_AIS_EDR_2018.DAT           ",2005-08-10T19:07:48.09 ,"1/0071780862.61479",    0,   20,  274896,"AIS","B1","B1","B0","B0","PISd",0,0,0,0,"B1", 0,15,   0, 0,    0,"AIS","N/A    ","OK ","OK ",    000977.340,    -050.855,    -166.113,    0015.502,    0047.451
"FRM_AIS_EDR_2018.DAT           ",2005-08-10T19:07:55.63 ,"1/0071780870.31542",    0,   21,  274896,"AIS","B1","B1","B0","B0","PISd",0,0,0,0,"B1", 0,15,   0, 0,    0,"AIS","N/A    ","OK ","OK ",    000967.677,    -050.498,    -166.091,    0015.505,    0047.406
"FRM_AIS_EDR_2018.DAT           ",2005-08-10T19:08:03.17 ,"1/0071780878.01606",    0,   22,  274896,"AIS","B1","B1","B0","B0","PISd",0,0,0,0,"B1", 0,15,   0, 0,    0,"AIS","N/A    ","OK ","OK ",    000958.057,    -050.140,    -166.070,    0015.509,    0047.362
"FRM_AIS_EDR_2018.DAT           ",2005-08-10T19:08:10.71 ,"1/0071780885.37205",    0,   23,  274896,"AIS","B1","B1","B0","B0","PISd",0,0,0,0,"B1", 0,15,   0, 0,    0,"AIS","N/A    ","OK ","OK ",    000948.478,    -049.779,    -166.049,    0015.512,    0047.321
"FRM_AIS_EDR_2018.DAT           ",2005-08-10T19:08:18.26 ,"1/0071780893.07268",    0,   24,  274896,"AIS","B1","B1","B0","B0","PISd",0,0,0,0,"B1", 0,15,   0, 0,    0,"AIS","N/A    ","OK ","OK ",    000938.943,    -049.417,    -166.028,    0015.516,    0047.281
"FRM_AIS_EDR_2018.DAT           ",2005-08-10T19:08:25.80 ,"1/0071780900.42868",    0,   25,  274896,"AIS","B1","B1","B0","B0","PISd",0,0,0,0,"B1", 0,15,   0, 0,    0,"AIS","N/A    ","OK ","OK ",    000929.451,    -049.054,    -166.008,    0015.519,    0047.243
"FRM_AIS_EDR_2018.DAT           ",2005-08-10T19:08:33.34 ,"1/0071780908.12931",    0,   26,  274896,"AIS","B1","B1","B0","B0","PISd",0,0,0,0,"B1", 0,15,   0, 0,    0,"AIS","N/A    ","OK ","OK ",    000920.004,    -048.689,    -165.989,    0015.522,    0047.208
"FRM_AIS_EDR_2018.DAT           ",2005-08-10T19:08:40.89 ,"1/0071780915.48530",    0,   27,  274896,"AIS","B1","B1","B0","B0","PISd",0,0,0,0,"B1", 0,15,   0, 0,    0,"AIS","N/A    ","OK ","OK ",    000910.602,    -048.322,    -165.970,    0015.526,    0047.174
"FRM_AIS_EDR_2018.DAT           ",2005-08-10T19:08:48.43 ,"1/0071780923.18594",    0,   28,  274896,"AIS","B1","B1","B0","B0","PISd",0,0,0,0,"B1", 0,15,   0, 0,    0,"AIS","N/A    ","OK ","OK ",    000901.244,    -047.954,    -165.952,    0015.529,    0047.142
"FRM_AIS_EDR_2018.DAT           ",2005-08-10T19:08:55.97 ,"1/0071780930.54193",    0,   29,  274896,"AIS","B1","B1","B0","B0","PISd",0,0,0,0,"B1", 0,15,   0, 0,    0,"AIS","N/A    ","OK ","OK ",    000891.933,    -047.584,    -165.934,    0015.532,    0047.112
"FRM_AIS_EDR_2018.DAT           ",2005-08-10T19:09:03.52 ,"1/0071780938.24256",    0,   30,  274896,"AIS","B1","B1","B0","B0","PISd",0,0,0,0,"B1", 0,15,   0, 0,    0,"AIS","N/A    ","OK ","OK ",    000882.669,    -047.213,    -165.916,    0015.535,    0047.085
"FRM_AIS_EDR_2018.DAT           ",2005-08-10T19:09:11.06 ,"1/0071780945.59856",    0,   31,  274896,"AIS","B1","B1","B0","B0","PISd",0,0,0,0,"B1", 0,15,   0, 0,    0,"AIS","N/A    ","OK ","OK ",    000873.451,    -046.840,    -165.899,    0015.538,    0047.059
"FRM_AIS_EDR_2018.DAT           ",2005-08-10T19:09:18.60 ,"1/0071780953.29919",    0,   32,  274896,"AIS","B1","B1","B0","B0","PISd",0,0,0,0,"B1", 0,15,   0, 0,    0,"AIS","N/A    ","OK ","OK ",    000864.282,    -046.465,    -165.883,    0015.541,    0047.036
"FRM_AIS_EDR_2018.DAT           ",2005-08-10T19:09:26.15 ,"1/0071780960.65518",    0,   33,  274896,"AIS","B1","B1","B0","B0","PISd",0,0,0,0,"B1", 0,15,   0, 0,    0,"AIS","N/A    ","OK ","OK ",    000855.161,    -046.089,    -165.867,    0015.545,    0047.015
"FRM_AIS_EDR_2018.DAT           ",2005-08-10T19:09:33.69 ,"1/0071780968.35582",    0,   34,  274896,"AIS","B1","B1","B0","B0","PISd",0,0,0,0,"B1", 0,15,   0, 0,    0,"AIS","N/A    ","OK ","OK ",    000846.089,    -045.711,    -165.851,    0015.548,    0046.996
"FRM_AIS_EDR_2018.DAT           ",2005-08-10T19:09:41.23 ,"1/0071780976.05645",    0,   35,  274896,"AIS","B1","B1","B0","B0","PISd",0,0,0,0,"B1", 0,15,   0, 0,    0,"AIS","N/A    ","OK ","OK ",    000837.067,    -045.331,    -165.836,    0015.551,    0046.979
"FRM_AIS_EDR_2018.DAT           ",2005-08-10T19:09:48.78 ,"1/0071780983.41244",    0,   36,  274896,"AIS","B1","B1","B0","B0","PISd",0,0,0,0,"B1", 0,15,   0, 0,    0,"AIS","N/A    ","OK ","OK ",    000828.095,    -044.950,    -165.821,    0015.554,    0046.965
"FRM_AIS_EDR_2018.DAT           ",2005-08-10T19:09:56.32 ,"1/0071780991.11308",    0,   37,  274896,"AIS","B1","B1","B0","B0","PISd",0,0,0,0,"B1", 0,15,   0, 0,    0,"AIS","N/A    ","OK ","OK ",    000819.174,    -044.567,    -165.807,    0015.557,    0046.953
"FRM_AIS_EDR_2018.DAT           ",2005-08-10T19:10:03.86 ,"1/0071780998.46907",    0,   38,  274896,"AIS","B1","B1","B0","B0","PISd",0,0,0,0,"B1", 0,15,   0, 0,    0,"AIS","N/A    ","OK ","OK ",    000810.305,    -044.183,    -165.793,    0015.560,    0046.943
"FRM_AIS_EDR_2018.DAT           ",2005-08-10T19:10:11.41 ,"1/0071781006.16970",    0,   39,  274896,"AIS","B1","B1","B0","B0","PISd",0,0,0,0,"B1", 0,15,   0, 0,    0,"AIS","N/A    ","OK ","OK ",    000801.488,    -043.797,    -165.780,    0015.563,    0046.936
"FRM_AIS_EDR_2018.DAT           ",2005-08-10T19:10:18.95 ,"1/0071781013.52570",    0,   40,  274896,"AIS","B1","B1","B0","B0","PISd",0,0,0,0,"B1", 0,15,   0, 0,    0,"AIS","N/A    ","OK ","OK ",    000792.724,    -043.409,    -165.766,    0015.566,    0046.931
"FRM_AIS_EDR_2018.DAT           ",2005-08-10T19:10:26.49 ,"1/0071781021.22633",    0,   41,  274896,"AIS","B1","B1","B0","B0","PISd",0,0,0,0,"B1", 0,15,   0, 0,    0,"AIS","N/A    ","OK ","OK ",    000784.013,    -043.020,    -165.754,    0015.568,    0046.929
"FRM_AIS_EDR_2018.DAT           ",2005-08-10T19:10:34.04 ,"1/0071781028.58232",    0,   42,  274896,"AIS","B1","B1","B0","B0","PISd",0,0,0,0,"B1", 0,15,   0, 0,    0,"AIS","N/A    ","OK ","OK ",    000775.357,    -042.629,    -165.741,    0015.571,    0046.929
"FRM_AIS_EDR_2018.DAT           ",2005-08-10T19:10:41.58 ,"1/0071781036.28296",    0,   43,  274896,"AIS","B1","B1","B0","B0","PISd",0,0,0,0,"B1", 0,15,   0, 0,    0,"AIS","N/A    ","OK ","OK ",    000766.755,    -042.237,    -165.729,    0015.574,    0046.932
"FRM_AIS_EDR_2018.DAT           ",2005-08-10T19:10:49.12 ,"1/0071781043.63895",    0,   44,  274896,"AIS","B1","B1","B0","B0","PISd",0,0,0,0,"B1", 0,15,   0, 0,    0,"AIS","N/A    ","OK ","OK ",    000758.209,    -041.843,    -165.717,    0015.577,    0046.937
"FRM_AIS_EDR_2018.DAT           ",2005-08-10T19:10:56.67 ,"1/0071781051.33958",    0,   45,  274896,"AIS","B1","B1","B0","B0","PISd",0,0,0,0,"B1", 0,15,   0, 0,    0,"AIS","N/A    ","OK ","OK ",    000749.719,    -041.447,    -165.706,    0015.580,    0046.945
"FRM_AIS_EDR_2018.DAT           ",2005-08-10T19:11:04.21 ,"1/0071781059.04022",    0,   46,  274896,"AIS","B1","B1","B0","B0","PISd",0,0,0,0,"B1", 0,15,   0, 0,    0,"AIS","N/A    ","OK ","OK ",    000741.286,    -041.050,    -165.695,    0015.582,    0046.955
"FRM_AIS_EDR_2018.DAT           ",2005-08-10T19:11:11.75 ,"1/0071781066.39621",    0,   47,  274896,"AIS","B1","B1","B0","B0","PISd",0,0,0,0,"B1", 0,15,   0, 0,    0,"AIS","N/A    ","OK ","OK ",    000732.910,    -040.651,    -165.684,    0015.585,    0046.968
"FRM_AIS_EDR_2018.DAT           ",2005-08-10T19:11:19.29 ,"1/0071781074.09684",    0,   48,  274896,"AIS","B1","B1","B0","B0","PISd",0,0,0,0,"B1", 0,15,   0, 0,    0,"AIS","N/A    ","OK ","OK ",    000724.592,    -040.250,    -165.674,    0015.588,    0046.984
"FRM_AIS_EDR_2018.DAT           ",2005-08-10T19:11:26.84 ,"1/0071781081.45284",    0,   49,  274896,"AIS","B1","B1","B0","B0","PISd",0,0,0,0,"B1", 0,15,   0, 0,    0,"AIS","N/A    ","OK ","OK ",    000716.333,    -039.848,    -165.664,    0015.591,    0047.003
"FRM_AIS_EDR_2018.DAT           ",2005-08-10T19:11:34.38 ,"1/0071781089.15347",    0,   50,  274896,"AIS","B1","B1","B0","B0","PISd",0,0,0,0,"B1", 0,15,   0, 0,    0,"AIS","N/A    ","OK ","OK ",    000708.134,    -039.444,    -165.654,    0015.593,    0047.024
"FRM_AIS_EDR_2018.DAT           ",2005-08-10T19:11:41.92 ,"1/0071781096.50946",    0,   51,  274896,"AIS","B1","B1","B0","B0","PISd",0,0,0,0,"B1", 0,15,   0, 0,    0,"AIS","N/A    ","OK ","OK ",    000699.995,    -039.039,    -165.645,    0015.596,    0047.048
"FRM_AIS_EDR_2018.DAT           ",2005-08-10T19:11:49.47 ,"1/0071781104.21010",    0,   52,  274896,"AIS","B1","B1","B0","B0","PISd",0,0,0,0,"B1", 0,15,   0, 0,    0,"AIS","N/A    ","OK ","OK ",    000691.916,    -038.632,    -165.636,    0015.599,    0047.075
"FRM_AIS_EDR_2018.DAT           ",2005-08-10T19:11:57.01 ,"1/0071781111.56609",    0,   53,  274896,"AIS","B1","B1","B0","B0","PISd",0,0,0,0,"B1", 0,15,   0, 0,    0,"AIS","N/A    ","OK ","OK ",    000683.899,    -038.223,    -165.627,    0015.601,    0047.105
"FRM_AIS_EDR_2018.DAT           ",2005-08-10T19:12:04.55 ,"1/0071781119.26672",    0,   54,  274896,"AIS","B1","B1","B0","B0","PISd",0,0,0,0,"B1", 0,15,   0, 0,    0,"AIS","N/A    ","OK ","OK ",    000675.944,    -037.813,    -165.619,    0015.604,    0047.137
"FRM_AIS_EDR_2018.DAT           ",2005-08-10T19:12:12.10 ,"1/0071781126.62271",    0,   55,  274896,"AIS","B1","B1","B0","B0","PISd",0,0,0,0,"B1", 0,15,   0, 0,    0,"AIS","N/A    ","OK ","OK ",    000668.052,    -037.401,    -165.610,    0015.607,    0047.173
"FRM_AIS_EDR_2018.DAT           ",2005-08-10T19:12:19.64 ,"1/0071781134.32335",    0,   56,  274896,"AIS","B1","B1","B0","B0","PISd",0,0,0,0,"B1", 0,15,   0, 0,    0,"AIS","N/A    ","OK ","OK ",    000660.223,    -036.988,    -165.603,    0015.609,    0047.211
"FRM_AIS_EDR_2018.DAT           ",2005-08-10T19:12:27.18 ,"1/0071781142.02398",    0,   57,  274896,"AIS","B1","B1","B0","B0","PISd",0,0,0,0,"B1", 0,15,   0, 0,    0,"AIS","N/A    ","OK ","OK ",    000652.458,    -036.573,    -165.595,    0015.612,    0047.252
"FRM_AIS_EDR_2018.DAT           ",2005-08-10T19:12:34.73 ,"1/0071781149.37997",    0,   58,  274896,"AIS","B1","B1","B0","B0","PISd",0,0,0,0,"B1", 0,15,   0, 0,    0,"AIS","N/A    ","OK ","OK ",    000644.759,    -036.157,    -165.587,    0015.614,    0047.296
"FRM_AIS_EDR_2018.DAT           ",2005-08-10T19:12:42.27 ,"1/0071781157.08061",    0,   59,  274896,"AIS","B1","B1","B0","B0","PISd",0,0,0,0,"B1", 0,15,   0, 0,    0,"AIS","N/A    ","OK ","OK ",    000637.125,    -035.738,    -165.580,    0015.617,    0047.344
"FRM_AIS_EDR_2018.DAT           ",2005-08-10T19:12:49.81 ,"1/0071781164.43660",    0,   60,  274896,"AIS","B1","B1","B0","B0","PISd",0,0,0,0,"B1", 0,15,   0, 0,    0,"AIS","N/A    ","OK ","OK ",    000629.557,    -035.319,    -165.573,    0015.619,    0047.394
"FRM_AIS_EDR_2018.DAT           ",2005-08-10T19:12:57.36 ,"1/0071781172.13723",    0,   61,  274896,"AIS","B1","B1","B0","B0","PISd",0,0,0,0,"B1", 0,15,   0, 0,    0,"AIS","N/A    ","OK ","OK ",    000622.056,    -034.898,    -165.567,    0015.622,    0047.447
"FRM_AIS_EDR_2018.DAT           ",2005-08-10T19:13:04.90 ,"1/0071781179.49323",    0,   62,  274896,"AIS","B1","B1","B0","B0","PISd",0,0,0,0,"B1", 0,15,   0, 0,    0,"AIS","N/A    ","OK ","OK ",    000614.622,    -034.475,    -165.560,    0015.624,    0047.503
"FRM_AIS_EDR_2018.DAT           ",2005-08-10T19:13:12.44 ,"1/0071781187.19386",    0,   63,  274896,"AIS","B1","B1","B0","B0","PISd",0,0,0,0,"B1", 0,15,   0, 0,    0,"AIS","N/A    ","OK ","OK ",    000607.257,    -034.051,    -165.554,    0015.627,    0047.563
"FRM_AIS_EDR_2018.DAT           ",2005-08-10T19:13:19.99 ,"1/0071781194.54985",    0,   64,  274896,"AIS","B1","B1","B0","B0","PISd",0,0,0,0,"B1", 0,15,   0, 0,    0,"AIS","N/A    ","OK ","OK ",    000599.961,    -033.625,    -165.548,    0015.629,    0047.625
"FRM_AIS_EDR_2018.DAT           ",2005-08-10T19:13:27.53 ,"1/0071781202.25049",    0,   65,  274896,"AIS","B1","B1","B0","B0","PISd",0,0,0,0,"B1", 0,15,   0, 0,    0,"AIS","N/A    ","OK ","OK ",    000592.734,    -033.197,    -165.543,    0015.631,    0047.691
"FRM_AIS_EDR_2018.DAT           ",2005-08-10T19:13:35.07 ,"1/0071781209.60648",    0,   66,  274896,"AIS","B1","B1","B0","B0","PISd",0,0,0,0,"B1", 0,15,   0, 0,    0,"AIS","N/A    ","OK ","OK ",    000585.578,    -032.768,    -165.537,    0015.634,    0047.759
"FRM_AIS_EDR_2018.DAT           ",2005-08-10T19:13:42.62 ,"1/0071781217.30711",    0,   67,  274896,"AIS","B1","B1","B0","B0","PISd",0,0,0,0,"B1", 0,15,   0, 0,    0,"AIS","N/A    ","OK ","OK ",    000578.493,    -032.338,    -165.532,    0015.636,    0047.831
"FRM_AIS_EDR_2018.DAT           ",2005-08-10T19:13:50.16 ,"1/0071781225.00775",    0,   68,  274896,"AIS","B1","B1","B0","B0","PISd",0,0,0,0,"B1", 0,15,   0, 0,    0,"AIS","N/A    ","OK ","OK ",    000571.479,    -031.906,    -165.527,    0015.639,    0047.906
"FRM_AIS_EDR_2018.DAT           ",2005-08-10T19:13:57.70 ,"1/0071781232.36374",    0,   69,  274896,"AIS","B1","B1","B0","B0","PISd",0,0,0,0,"B1", 0,15,   0, 0,    0,"AIS","N/A    ","OK ","OK ",    000564.538,    -031.472,    -165.522,    0015.641,    0047.985
"FRM_AIS_EDR_2018.DAT           ",2005-08-10T19:14:05.25 ,"1/0071781240.06437",    0,   70,  274896,"AIS","B1","B1","B0","B0","PISd",0,0,0,0,"B1", 0,15,   0, 0,    0,"AIS","N/A    ","OK ","OK ",    000557.670,    -031.037,    -165.518,    0015.643,    0048.066
"FRM_AIS_EDR_2018.DAT           ",2005-08-10T19:14:12.79 ,"1/0071781247.42037",    0,   71,  274896,"AIS","B1","B1","B0","B0","PISd",0,0,0,0,"B1", 0,15,   0, 0,    0,"AIS","N/A    ","OK ","OK ",    000550.875,    -030.601,    -165.513,    0015.646,    0048.151
"FRM_AIS_EDR_2018.DAT           ",2005-08-10T19:14:20.33 ,"1/0071781255.12100",    0,   72,  274896,"AIS","B1","B1","B0","B0","PISd",0,0,0,0,"B1", 0,15,   0, 0,    0,"AIS","N/A    ","OK ","OK ",    000544.155,    -030.163,    -165.509,    0015.648,    0048.238
"FRM_AIS_EDR_2018.DAT           ",2005-08-10T19:14:27.87 ,"1/0071781262.47699",    0,   73,  274896,"AIS","B1","B1","B0","B0","PISd",0,0,0,0,"B1", 0,15,   0, 0,    0,"AIS","N/A    ","OK ","OK ",    000537.510,    -029.724,    -165.505,    0015.650,    0048.329
"FRM_AIS_EDR_2018.DAT           ",2005-08-10T19:14:35.42 ,"1/0071781270.17763",    0,   74,  274896,"AIS","B1","B1","B0","B0","PISd",0,0,0,0,"B1", 0,15,   0, 0,    0,"AIS","N/A    ","OK ","OK ",    000530.941,    -029.283,    -165.501,    0015.652,    0048.424
"FRM_AIS_EDR_2018.DAT           ",2005-08-10T19:14:42.96 ,"1/0071781277.53362",    0,   75,  274896,"AIS","B1","B1","B0","B0","PISd",0,0,0,0,"B1", 0,15,   0, 0,    0,"AIS","N/A    ","OK ","OK ",    000524.448,    -028.840,    -165.498,    0015.655,    0048.521
"FRM_AIS_EDR_2018.DAT           ",2005-08-10T19:14:50.50 ,"1/0071781285.23425",    0,   76,  274896,"AIS","B1","B1","B0","B0","PISd",0,0,0,0,"B1", 0,15,   0, 0,    0,"AIS","N/A    ","OK ","OK ",    000518.033,    -028.397,    -165.494,    0015.657,    0048.622
"FRM_AIS_EDR_2018.DAT           ",2005-08-10T19:14:58.05 ,"1/0071781292.59025",    0,   77,  274896,"AIS","B1","B1","B0","B0","PISd",0,0,0,0,"B1", 0,15,   0, 0,    0,"AIS","N/A    ","OK ","OK ",    000511.695,    -027.951,    -165.491,    0015.659,    0048.726
"FRM_AIS_EDR_2018.DAT           ",2005-08-10T19:15:05.59 ,"1/0071781300.29088",    0,   78,  274896,"AIS","B1","B1","B0","B0","PISd",0,0,0,0,"B1", 0,15,   0, 0,    0,"AIS","N/A    ","OK ","OK ",    000505.435,    -027.505,    -165.488,    0015.662,    0048.834
"FRM_AIS_EDR_2018.DAT           ",2005-08-10T19:15:13.13 ,"1/0071781307.64687",    0,   79,  274896,"AIS","B1","B1","B0","B0","PISd",0,0,0,0,"B1", 0,15,   0, 0,    0,"AIS","N/A    ","OK ","OK ",    000499.255,    -027.057,    -165.485,    0015.664,    0048.944
"FRM_AIS_EDR_2018.DAT           ",2005-08-10T19:15:20.68 ,"1/0071781315.34751",    0,   80,  274896,"AIS","B1","B1","B0","B0","PISd",0,0,0,0,"B1", 0,15,   0, 0,    0,"AIS","N/A    ","OK ","OK ",    000493.154,    -026.607,    -165.482,    0015.666,    0049.058
"FRM_AIS_EDR_2018.DAT           ",2005-08-10T19:15:28.22 ,"1/0071781323.04814",    0,   81,  274896,"AIS","B1","B1","B0","B0","PISd",0,0,0,0,"B1", 0,15,   0, 0,    0,"AIS","N/A    ","OK ","OK ",    000487.134,    -026.156,    -165.480,    0015.668,    0049.176
"FRM_AIS_EDR_2018.DAT           ",2005-08-10T19:15:35.76 ,"1/0071781330.40413",    0,   82,  274896,"AIS","B1","B1","B0","B0","PISd",0,0,0,0,"B1", 0,15,   0, 0,    0,"AIS","N/A    ","OK ","OK ",    000481.195,    -025.704,    -165.477,    0015.671,    0049.296
"FRM_AIS_EDR_2018.DAT           ",2005-08-10T19:15:43.31 ,"1/0071781338.10477",    0,   83,  274896,"AIS","B1","B1","B0","B0","PISd",0,0,0,0,"B1", 0,15,   0, 0,    0,"AIS","N/A    ","OK ","OK ",    000475.338,    -025.251,    -165.475,    0015.673,    0049.420
"FRM_AIS_EDR_2018.DAT           ",2005-08-10T19:15:50.85 ,"1/0071781345.46076",    0,   84,  274896,"AIS","B1","B1","B0","B0","PISd",0,0,0,0,"B1", 0,15,   0, 0,    0,"AIS","N/A    ","OK ","OK ",    000469.563,    -024.796,    -165.473,    0015.675,    0049.547
"FRM_AIS_EDR_2018.DAT           ",2005-08-10T19:15:58.39 ,"1/0071781353.16139",    0,   85,  274896,"AIS","B1","B1","B0","B0","PISd",0,0,0,0,"B1", 0,15,   0, 0,    0,"AIS","N/A    ","OK ","OK ",    000463.871,    -024.339,    -165.471,    0015.677,    0049.678
"FRM_AIS_EDR_2018.DAT           ",2005-08-10T19:16:05.94 ,"1/0071781360.51739",    0,   86,  274896,"AIS","B1","B1","B0","B0","PISd",0,0,0,0,"B1", 0,15,   0, 0,    0,"AIS","N/A    ","OK ","OK ",    000458.263,    -023.882,    -165.469,    0015.679,    0049.811
"FRM_AIS_EDR_2018.DAT           ",2005-08-10T19:16:13.48 ,"1/0071781368.21802",    0,   87,  274896,"AIS","B1","B1","B0","B0","PISd",0,0,0,0,"B1", 0,15,   0, 0,    0,"AIS","N/A    ","OK ","OK ",    000452.739,    -023.423,    -165.467,    0015.681,    0049.948
"FRM_AIS_EDR_2018.DAT           ",2005-08-10T19:16:21.02 ,"1/0071781375.57401",    0,   88,  274896,"AIS","B1","B1","B0","B0","PISd",0,0,0,0,"B1", 0,15,   0, 0,    0,"AIS","N/A    ","OK ","OK ",    000447.300,    -022.963,    -165.465,    0015.683,    0050.089
"FRM_AIS_EDR_2018.DAT           ",2005-08-10T19:16:28.57 ,"1/0071781383.27464",    0,   89,  274896,"AIS","B1","B1","B0","B0","PISd",0,0,0,0,"B1", 0,15,   0, 0,    0,"AIS","N/A    ","OK ","OK ",    000441.947,    -022.501,    -165.464,    0015.686,    0050.232
"FRM_AIS_EDR_2018.DAT           ",2005-08-10T19:16:36.11 ,"1/0071781390.63064",    0,   90,  274896,"AIS","B1","B1","B0","B0","PISd",0,0,0,0,"B1", 0,15,   0, 0,    0,"AIS","N/A    ","OK ","OK ",    000436.680,    -022.039,    -165.463,    0015.688,    0050.379